Regional Weather Roundup
Issued by NWS

Home | Current Version | Previous Version | Graphics & Text | Print | Product List | Glossary On
Versions: 1 2 3 4 5 6 7 8 9 10 11 12 13 14 15 16 17 18 19 20 21 22 23 24 25 26 27 28 29 30 31 32 33 34 35 36 37 38 39 40 41 42 43 44 45 46 47 48 49 50
000
ASUS45 KBOI 281210
RWRID
WEATHER ROUNDUP FOR IDAHO
NATIONAL WEATHER SERVICE BOISE ID
500 AM MST SAT FEB 28 2015

NOTE: "FAIR" INDICATES FEW OR NO CLOUDS BELOW 12000 FEET
WITH NO SIGNIFICANT WEATHER AND/OR OBSTRUCTIONS TO VISIBILITY

IDZ012-014-281300-
SOUTHWEST IDAHO


CITY           SKY/WX    TMP DP  RH WIND       PRES   REMARKS
BOISE          CLOUDY    39  29  67 W7        29.71R WCI  34
CALDWELL       CLOUDY    37  27  65 S8        29.75R WCI  31
MOUNTAIN HOME  CLOUDY    40  22  49 SE15      29.68R WCI  32
$$

IDZ016-017-281300-
SOUTHCENTRAL IDAHO


CITY           SKY/WX    TMP DP  RH WIND       PRES   REMARKS
BURLEY         MOCLDY    28  20  71 E18       29.69R WCI  15
JEROME         CLOUDY    31  17  56 NE23G31   29.69R WCI  18
TWIN FALLS     CLOUDY    33  24  69 E18       29.68S WCI  22
$$

IDZ019>023-281300-
SOUTHEAST IDAHO


CITY           SKY/WX    TMP DP  RH WIND       PRES   REMARKS
IDAHO FALLS    PTCLDY    20  11  68 N14       29.77S WCI   7
POCATELLO      CLEAR     20  17  88 NE9       29.74S WCI   9
REXBURG        CLEAR     16   9  74 NE10      29.79R WCI   4
$$

IDZ006-010-011-018-031-032-281300-
CENTRAL IDAHO MOUNTAINS


CITY           SKY/WX    TMP DP  RH WIND       PRES   REMARKS
MCCALL         CLOUDY    31  21  66 N6        29.68R WCI  25
HAILEY         CLOUDY    28  23  80 NW7       29.71S WCI  21
STANLEY          N/A     11   6  81 SE3       29.71R
SALMON         MOCLDY    28  14  54 E9G16     29.84S WCI  20
CHALLIS        MOCLDY    27  17  66 NW13      29.75R WCI  16
$$

IDZ002-004-006-007-026-281300-
NORTHERN IDAHO


CITY           SKY/WX    TMP DP  RH WIND       PRES   REMARKS
LEWISTON       PTCLDY    33  22  63 S3        29.91R
LOWELL           N/A     38  13  35 VRB7      29.90R WCI  33
COEUR D`ALENE  CLEAR     28   9  43 N16       30.01R WCI  17
MULLAN PASS    PTCLDY     9   4  80 VRB7      29.82R WCI  -2
$$



USA.gov is the U.S. government's official web portal to all federal, state and local government web resources and services.